Location: Clay (historical)
(35.1476°N, 89.8179°W)
Time: 01:56:20
(UTC+00:00)

Cosmos 1356 Rocket - Visible Passes

Search period start: 16 May 2026 00:00
Search period end: 26 May 2026 00:00
Orbit: 514 x 556 km, 81.1° (Epoch: 15 May)

Date Brightness Start Highest point End Pass type
(mag) Time Alt. Az. Time Alt. Az. Time Alt. Az.
21 May 3.5 10:16:09 10° N 10:20:01 75° E 10:23:55 10° SSE visible
22 May 3.5 10:07:07 10° N 10:11:00 74° E 10:14:54 10° SSE visible
23 May 3.5 09:58:05 10° N 10:01:59 72° E 10:05:53 10° SSE visible
24 May 3.5 09:49:04 10° N 09:52:57 71° E 09:56:52 10° SSE visible
25 May 3.5 09:40:02 10° N 09:43:55 70° E 09:47:50 10° SSE visible
